Location: Arrodets-la-Barthe
(43.0306°N, 0.2829°E)
Time: 12:55:14
(UTC+00:00)

STRAND 1 - Pass Details

Date: 08 April 2023
Orbit: 767 x 779 km, 98.4° (Epoch: 28 May)

Event Time Altitude Azimuth Distance (km) Brightness Sun altitude
Rises 04:06:32 0° 107° (ESE) 3,244 ? -15.2°
Reaches altitude 10° 04:10:37 10° 74° (ENE) 2,319 ? -14.6°
Maximum altitude 04:12:07 11° 57° (ENE) 2,231 ? -14.3°
Drops below altitude 10° 04:13:37 10° 40° (NE) 2,321 ? -14.1°
Sets 04:17:42 0° 7° (N) 3,252 ? -13.4°
